User: anonymous   Login
Location: ????
(30.1475°N, 31.1342°E)
Time: 00:37:42
(UTC+00:00)
Language:

ARIANE 5 R/B - Orbit

View from above orbital plane
View from above orbital plane
View from above satellite
View from above satellite

Ground track
Ground track

The orbit data is extracted from the following two-line orbital elements,

1 27387U 02009B   23027.55259910  .00000167  00000-0  72602-4 0  9993
2 27387  98.7435   3.4506 0032390 174.9369 185.2150 14.36130388 95776
Epoch (UTC): 27 January 2023 13:15:44
Eccentricity: 0.0032390
inclination: 98.7435°
perigee height: 748 km
apogee height: 794 km
right ascension of ascending node: 3.4506°
argument of perigee: 174.9369°
revolutions per day: 14.36130388
mean anomaly at epoch: 185.2150°
orbit number at epoch: 9577

The dashed part of the orbit path shows where the satellite is in the earth's shadow,  

DLR